Time,TemperatureF,DewpointF,PressureIn,WindDirection,WindDirectionDegrees,WindSpeedMPH,WindSpeedGustMPH,Humidity,HourlyPrecipIn,Conditions,Clouds,dailyrainin,SoftwareType,DateUTC
2013-02-04 00:22:00,25.0,-99.9,29.78,SW,230,-999.0,7.0,-999,-99.99,,,-99.99,,2013-02-04 05:22:00,
2013-02-04 00:33:00,25.0,-99.9,29.78,SW,230,-999.0,7.0,-999,-99.99,,,-99.99,,2013-02-04 05:33:00,
2013-02-04 00:42:00,25.0,-99.9,29.78,SW,230,-999.0,7.0,-999,-99.99,,,-99.99,,2013-02-04 05:42:00,
2013-02-04 00:52:00,26.0,-99.9,29.78,South,169,-999.0,9.0,-999,-99.99,,,-99.99,,2013-02-04 05:52:00,
2013-02-04 01:22:00,26.0,-99.9,29.78,South,169,-999.0,9.0,-999,-99.99,,,-99.99,,2013-02-04 06:22:00,
2013-02-04 01:32:00,26.0,-99.9,29.78,South,169,-999.0,9.0,-999,-99.99,,,-99.99,,2013-02-04 06:32:00,
2013-02-04 01:42:00,26.0,-99.9,29.78,South,169,-999.0,9.0,-999,-99.99,,,-99.99,,2013-02-04 06:42:00,
2013-02-04 01:52:00,26.0,-99.9,29.80,West,273,-999.0,14.0,-999,-99.99,,,-99.99,,2013-02-04 06:52:00,
2013-02-04 02:22:00,26.0,-99.9,29.80,West,273,-999.0,14.0,-999,-99.99,,,-99.99,,2013-02-04 07:22:00,
2013-02-04 02:32:00,26.0,-99.9,29.80,West,273,-999.0,14.0,-999,-99.99,,,-99.99,,2013-02-04 07:32:00,
2013-02-04 02:42:00,26.0,-99.9,29.80,West,273,-999.0,14.0,-999,-99.99,,,-99.99,,2013-02-04 07:42:00,
2013-02-04 02:52:00,25.0,-99.9,29.81,WNW,286,5.0,16.0,-999,-99.99,,,-99.99,,2013-02-04 07:52:00,
2013-02-04 03:21:00,25.0,-99.9,29.81,WNW,286,5.0,16.0,-999,-99.99,,,-99.99,,2013-02-04 08:21:00,
2013-02-04 03:32:00,25.0,-99.9,29.81,WNW,286,5.0,16.0,-999,-99.99,,,-99.99,,2013-02-04 08:32:00,
2013-02-04 03:42:00,25.0,-99.9,29.81,WNW,286,5.0,16.0,-999,-99.99,,,-99.99,,2013-02-04 08:42:00,
2013-02-04 03:52:00,24.0,-99.9,29.83,NW,326,8.0,12.0,-999,-99.99,,,-99.99,,2013-02-04 08:52:00,
2013-02-04 04:32:00,24.0,-99.9,29.83,NW,326,8.0,12.0,-999,-99.99,,,-99.99,,2013-02-04 09:32:00,
2013-02-04 04:42:00,24.0,-99.9,29.83,NW,326,8.0,12.0,-999,-99.99,,,-99.99,,2013-02-04 09:42:00,
2013-02-04 04:52:00,24.0,-99.9,29.86,WNW,291,-999.0,10.0,-999,-99.99,,,-99.99,,2013-02-04 09:52:00,
2013-02-04 05:22:00,24.0,-99.9,29.86,WNW,291,-999.0,10.0,-999,-99.99,,,-99.99,,2013-02-04 10:22:00,
2013-02-04 05:32:00,24.0,-99.9,29.86,WNW,291,-999.0,10.0,-999,-99.99,,,-99.99,,2013-02-04 10:32:00,
2013-02-04 05:42:00,24.0,-99.9,29.86,WNW,291,-999.0,10.0,-999,-99.99,,,-99.99,,2013-02-04 10:42:00,
2013-02-04 05:52:00,23.0,-99.9,29.88,West,266,-999.0,8.0,-999,-99.99,,,-99.99,,2013-02-04 10:52:00,
2013-02-04 06:22:00,23.0,-99.9,29.88,West,266,-999.0,8.0,-999,-99.99,,,-99.99,,2013-02-04 11:22:00,
2013-02-04 06:33:00,23.0,-99.9,29.88,West,266,-999.0,8.0,-999,-99.99,,,-99.99,,2013-02-04 11:33:00,
2013-02-04 06:42:00,23.0,-99.9,29.88,West,266,-999.0,8.0,-999,-99.99,,,-99.99,,2013-02-04 11:42:00,
2013-02-04 06:52:00,23.0,-99.9,29.90,WSW,255,-999.0,8.0,-999,-99.99,,,-99.99,,2013-02-04 11:52:00,
2013-02-04 07:22:00,23.0,-99.9,29.90,WSW,255,-999.0,8.0,-999,-99.99,,,-99.99,,2013-02-04 12:22:00,
2013-02-04 07:33:00,23.0,-99.9,29.90,WSW,255,-999.0,8.0,-999,-99.99,,,-99.99,,2013-02-04 12:33:00,
2013-02-04 07:42:00,23.0,-99.9,29.90,WSW,255,-999.0,8.0,-999,-99.99,,,-99.99,,2013-02-04 12:42:00,
2013-02-04 07:52:00,22.0,-99.9,29.91,SSW,195,-999.0,-999.0,-999,-99.99,,,-99.99,,2013-02-04 12:52:00,
2013-02-04 08:22:00,22.0,-99.9,29.91,SSW,195,-999.0,-999.0,-999,-99.99,,,-99.99,,2013-02-04 13:22:00,
2013-02-04 08:33:00,22.0,-99.9,29.91,SSW,195,-999.0,-999.0,-999,-99.99,,,-99.99,,2013-02-04 13:33:00,
2013-02-04 08:42:00,22.0,-99.9,29.91,SSW,195,-999.0,-999.0,-999,-99.99,,,-99.99,,2013-02-04 13:42:00,
2013-02-04 08:52:00,25.0,-99.9,29.92,WNW,289,-999.0,6.0,-999,-99.99,,,-99.99,,2013-02-04 13:52:00,
2013-02-04 09:23:00,25.0,-99.9,29.92,WNW,289,-999.0,6.0,-999,-99.99,,,-99.99,,2013-02-04 14:23:00,
2013-02-04 09:33:00,25.0,-99.9,29.92,WNW,289,-999.0,6.0,-999,-99.99,,,-99.99,,2013-02-04 14:33:00,
2013-02-04 09:42:00,25.0,-99.9,29.92,WNW,289,-999.0,6.0,-999,-99.99,,,-99.99,,2013-02-04 14:42:00,
2013-02-04 09:52:00,27.0,-99.9,29.94,SW,218,-999.0,15.0,-999,-99.99,,,-99.99,,2013-02-04 14:52:00,
2013-02-04 10:24:00,27.0,-99.9,29.94,SW,218,-999.0,15.0,-999,-99.99,,,-99.99,,2013-02-04 15:24:00,
2013-02-04 10:33:00,27.0,-99.9,29.94,SW,218,-999.0,15.0,-999,-99.99,,,-99.99,,2013-02-04 15:33:00,
2013-02-04 10:43:00,27.0,-99.9,29.94,SW,218,-999.0,15.0,-999,-99.99,,,-99.99,,2013-02-04 15:43:00,
2013-02-04 10:52:00,29.0,-99.9,29.93,WNW,292,-999.0,15.0,-999,-99.99,,,-99.99,,2013-02-04 15:52:00,
2013-02-04 11:23:00,29.0,-99.9,29.93,WNW,292,-999.0,15.0,-999,-99.99,,,-99.99,,2013-02-04 16:23:00,
2013-02-04 11:33:00,29.0,-99.9,29.93,WNW,292,-999.0,15.0,-999,-99.99,,,-99.99,,2013-02-04 16:33:00,
2013-02-04 11:43:00,29.0,-99.9,29.93,WNW,292,-999.0,15.0,-999,-99.99,,,-99.99,,2013-02-04 16:43:00,
2013-02-04 11:52:00,29.0,-99.9,29.91,SW,236,8.0,16.0,-999,-99.99,,,-99.99,,2013-02-04 16:52:00,
2013-02-04 12:21:00,29.0,-99.9,29.91,SW,236,8.0,16.0,-999,-99.99,,,-99.99,,2013-02-04 17:21:00,
2013-02-04 12:32:00,29.0,-99.9,29.91,SW,236,8.0,16.0,-999,-99.99,,,-99.99,,2013-02-04 17:32:00,
2013-02-04 12:42:00,29.0,-99.9,29.91,SW,236,8.0,16.0,-999,-99.99,,,-99.99,,2013-02-04 17:42:00,
2013-02-04 12:52:00,29.0,-99.9,29.90,West,276,-999.0,16.0,-999,-99.99,,,-99.99,,2013-02-04 17:52:00,
2013-02-04 13:22:00,29.0,-99.9,29.90,West,276,-999.0,16.0,-999,-99.99,,,-99.99,,2013-02-04 18:22:00,
2013-02-04 13:33:00,29.0,-99.9,29.90,West,276,-999.0,16.0,-999,-99.99,,,-99.99,,2013-02-04 18:33:00,
2013-02-04 13:42:00,29.0,-99.9,29.90,West,276,-999.0,16.0,-999,-99.99,,,-99.99,,2013-02-04 18:42:00,
2013-02-04 13:52:00,30.0,-99.9,29.89,NW,321,-999.0,11.0,-999,-99.99,,,-99.99,,2013-02-04 18:52:00,
2013-02-04 14:23:00,30.0,-99.9,29.89,NW,321,-999.0,11.0,-999,-99.99,,,-99.99,,2013-02-04 19:23:00,
2013-02-04 14:32:00,30.0,-99.9,29.89,NW,321,-999.0,11.0,-999,-99.99,,,-99.99,,2013-02-04 19:32:00,
2013-02-04 14:42:00,30.0,-99.9,29.89,NW,321,-999.0,11.0,-999,-99.99,,,-99.99,,2013-02-04 19:42:00,
2013-02-04 14:52:00,30.0,-99.9,29.88,WNW,293,14.0,14.0,-999,-99.99,,,-99.99,,2013-02-04 19:52:00,
2013-02-04 15:22:00,30.0,-99.9,29.88,WNW,293,14.0,14.0,-999,-99.99,,,-99.99,,2013-02-04 20:22:00,
2013-02-04 15:32:00,30.0,-99.9,29.88,WNW,293,14.0,14.0,-999,-99.99,,,-99.99,,2013-02-04 20:32:00,
2013-02-04 15:42:00,30.0,-99.9,29.88,WNW,293,14.0,14.0,-999,-99.99,,,-99.99,,2013-02-04 20:42:00,
2013-02-04 15:52:00,30.0,-99.9,29.89,WSW,255,-999.0,17.0,-999,-99.99,,,-99.99,,2013-02-04 20:52:00,
2013-02-04 16:23:00,30.0,-99.9,29.89,WSW,255,-999.0,17.0,-999,-99.99,,,-99.99,,2013-02-04 21:23:00,
2013-02-04 16:32:00,30.0,-99.9,29.89,WSW,255,-999.0,17.0,-999,-99.99,,,-99.99,,2013-02-04 21:32:00,
2013-02-04 16:43:00,30.0,-99.9,29.89,WSW,255,-999.0,17.0,-999,-99.99,,,-99.99,,2013-02-04 21:43:00,
2013-02-04 16:52:00,29.0,-99.9,29.90,SW,220,6.0,13.0,-999,-99.99,,,-99.99,,2013-02-04 21:52:00,
2013-02-04 17:22:00,29.0,-99.9,29.90,SW,220,6.0,13.0,-999,-99.99,,,-99.99,,2013-02-04 22:22:00,
2013-02-04 17:33:00,29.0,-99.9,29.90,SW,220,6.0,13.0,-999,-99.99,,,-99.99,,2013-02-04 22:33:00,
2013-02-04 17:42:00,29.0,-99.9,29.90,SW,220,6.0,13.0,-999,-99.99,,,-99.99,,2013-02-04 22:42:00,
2013-02-04 17:52:00,28.0,-99.9,29.91,NW,318,-999.0,16.0,-999,-99.99,,,-99.99,,2013-02-04 22:52:00,
2013-02-04 18:22:00,28.0,-99.9,29.91,NW,318,-999.0,16.0,-999,-99.99,,,-99.99,,2013-02-04 23:22:00,
2013-02-04 18:32:00,28.0,-99.9,29.91,NW,318,-999.0,16.0,-999,-99.99,,,-99.99,,2013-02-04 23:32:00,
2013-02-04 18:42:00,28.0,-99.9,29.91,NW,318,-999.0,16.0,-999,-99.99,,,-99.99,,2013-02-04 23:42:00,
2013-02-04 18:52:00,28.0,-99.9,29.93,West,259,-999.0,8.0,-999,-99.99,,,-99.99,,2013-02-04 23:52:00,
2013-02-04 19:22:00,28.0,-99.9,29.93,West,259,-999.0,8.0,-999,-99.99,,,-99.99,,2013-02-05 00:22:00,
2013-02-04 19:32:00,28.0,-99.9,29.93,West,259,-999.0,8.0,-999,-99.99,,,-99.99,,2013-02-05 00:32:00,
2013-02-04 19:42:00,28.0,-99.9,29.93,West,259,-999.0,8.0,-999,-99.99,,,-99.99,,2013-02-05 00:42:00,
2013-02-04 19:52:00,28.0,-99.9,29.94,SSE,163,-999.0,-999.0,-999,-99.99,,,-99.99,,2013-02-05 00:52:00,
2013-02-04 20:22:00,28.0,-99.9,29.94,SSE,163,-999.0,-999.0,-999,-99.99,,,-99.99,,2013-02-05 01:22:00,
2013-02-04 20:33:00,28.0,-99.9,29.94,SSE,163,-999.0,-999.0,-999,-99.99,,,-99.99,,2013-02-05 01:33:00,
2013-02-04 20:42:00,28.0,-99.9,29.94,SSE,163,-999.0,-999.0,-999,-99.99,,,-99.99,,2013-02-05 01:42:00,
2013-02-04 20:52:00,27.0,-99.9,29.94,SSE,163,-999.0,-999.0,-999,-99.99,,,-99.99,,2013-02-05 01:52:00,
2013-02-04 21:22:00,27.0,-99.9,29.94,SSE,163,-999.0,-999.0,-999,-99.99,,,-99.99,,2013-02-05 02:22:00,
2013-02-04 21:32:00,27.0,-99.9,29.94,SSE,163,-999.0,-999.0,-999,-99.99,,,-99.99,,2013-02-05 02:32:00,
2013-02-04 21:42:00,27.0,-99.9,29.94,SSE,163,-999.0,-999.0,-999,-99.99,,,-99.99,,2013-02-05 02:42:00,
2013-02-04 21:52:00,26.0,-99.9,29.93,SSE,163,-999.0,-999.0,-999,-99.99,,,-99.99,,2013-02-05 02:52:00,
2013-02-04 22:22:00,26.0,-99.9,29.93,SSE,163,-999.0,-999.0,-999,-99.99,,,-99.99,,2013-02-05 03:22:00,
2013-02-04 22:32:00,26.0,-99.9,29.93,SSE,163,-999.0,-999.0,-999,-99.99,,,-99.99,,2013-02-05 03:32:00,
2013-02-04 22:42:00,26.0,-99.9,29.93,SSE,163,-999.0,-999.0,-999,-99.99,,,-99.99,,2013-02-05 03:42:00,
2013-02-04 22:52:00,27.0,-99.9,29.93,SSE,163,-999.0,-999.0,-999,-99.99,,,-99.99,,2013-02-05 03:52:00,
2013-02-04 23:22:00,27.0,-99.9,29.93,SSE,163,-999.0,-999.0,-999,-99.99,,,-99.99,,2013-02-05 04:22:00,
2013-02-04 23:32:00,27.0,-99.9,29.93,SSE,163,-999.0,-999.0,-999,-99.99,,,-99.99,,2013-02-05 04:32:00,
2013-02-04 23:42:00,27.0,-99.9,29.93,SSE,163,-999.0,-999.0,-999,-99.99,,,-99.99,,2013-02-05 04:42:00,
2013-02-04 23:52:00,27.0,-99.9,29.93,SSE,163,-999.0,-999.0,-999,-99.99,,,-99.99,,2013-02-05 04:52:00,